Tracking 19795 objects as of 17-Jul-2019
HD Live streaming from Space Station
objects crossing your sky now

SCOUT A DEB

Track SCOUT A DEB now!
10-day predictions


NORAD ID: 5036
Int'l Code: 1970-067C
Perigee: 814.1 km
Apogee: 847.1 km
Inclination: 89.9 °
Period: 101.4 minutes
Semi major axis: 7201 km
RCS: 0.0454 m2 (small)
Launch date: August 27, 1970
Source: United States (US)
Launch site: AIR FORCE WESTERN TEST RANGE (AFWTR)

Note: This is SATELLITE DEBRIS
aabbcc
Your satellite tracking list
Your tracking list is empty




NASA's NSSDC Master Catalog

Two Line Element Set (TLE):
1  5036U 70067C   19198.16541145  .00000557  00000-0  25328-3 0  9999
2  5036  89.8710 278.8955 0022932 308.9244  50.9901 14.20556520497106
Source of the keplerian elements: AFSPC